Location: Cardiff
(53.7833°N, 113.6000°W)
Time: 05:57:30
(UTC+00:00)

ARIANE 6 FM1 Upper Stage - Visible Passes

Search period start: 20 January 2026 00:00
Search period end: 30 January 2026 00:00
Orbit: 522 x 610 km, 62.0° (Epoch: 19 January)

Date Brightness Start Highest point End Pass type
(mag) Time Alt. Az. Time Alt. Az. Time Alt. Az.
22 Jan 5.2 03:13:35 10° SSW 03:14:07 13° SSW 03:14:07 13° SSW visible
23 Jan 4.5 01:37:08 10° SSE 01:38:55 14° SE 01:38:55 14° SE visible
23 Jan 4.8 03:13:39 10° SW 03:14:58 20° SW 03:14:58 20° SW visible
24 Jan 4.1 01:36:22 10° SSE 01:39:17 19° ESE 01:39:40 19° ESE visible
24 Jan 4.4 03:13:48 10° SW 03:15:43 27° SW 03:15:43 27° SW visible
25 Jan 3.7 01:35:55 10° S 01:39:18 26° SE 01:40:20 23° E visible
25 Jan 4.2 03:14:01 10° WSW 03:16:23 33° WSW 03:16:23 33° WSW visible
26 Jan 3.4 01:35:38 10° SSW 01:39:20 34° SE 01:40:55 25° E visible
26 Jan 4.0 03:14:18 10° WSW 03:16:57 36° W 03:16:57 36° W visible
27 Jan 2.9 01:35:30 10° SSW 01:39:23 46° SE 01:41:25 24° ENE visible
27 Jan 4.0 03:14:37 10° W 03:17:27 35° WNW 03:17:27 35° WNW visible
28 Jan 2.6 01:35:29 10° SW 01:39:30 63° SE 01:41:52 23° ENE visible
28 Jan 4.1 03:14:58 10° W 03:17:53 33° NW 03:17:53 33° NW visible
29 Jan 2.5 01:35:33 10° SW 01:39:37 83° SE 01:42:14 21° NE visible
29 Jan 4.2 03:15:21 10° W 03:18:15 30° NW 03:18:15 30° NW visible
